Weather History for Warroad, MN

Change the Weather History Date:

Wednesday, December 12, 2012

  Actual Average Record
Temperature  
Mean Temperature 3 °F -  
Max Temperature 15 °F 19 °F 39 °F (2014)
Min Temperature -9 °F 0 °F -25 °F (1956)
Degree Days  
Heating Degree Days 62    
Moisture  
Dew Point 2 °F    
Average Humidity 81    
Maximum Humidity 92    
Minimum Humidity 72    
Precipitation  
Precipitation 0.00 in - - ()
Sea Level Pressure  
Sea Level Pressure 29.86 in    
Wind  
Wind Speed 8 mph (ENE)    
Max Wind Speed 18 mph    
Max Gust Speed 23 mph    
Visibility 7 miles    
Events Snow    
Averages and records for this station are not official NWS values.
T = Trace of Precipitation, MM = Missing Value Source: NWS Daily Summary

Daily Weather History Graph

Daily Weather History Graph

Search for Another Location

Airport:

Trip Planner

Search our weather history database for the weather conditions in past years. The results will help you decide how hot, cold, wet, or windy it might be!

Date:

Astronomy

Dec. 12, 2012 Rise Set
Actual Time 8:06 AM CST 4:24 PM CST
Civil Twilight 7:29 AM CST 5:01 PM CST
Nautical Twilight 6:48 AM CST 5:41 PM CST
Astronomical Twilight 6:10 AM CST 6:20 PM CST
Moon 7:10 AM CST (12/12) 4:03 PM CST (12/12)
Length of Visible Light 9h 32m
Length of Day
8h 17m
Waning Crescent, 1% of the Moon is Illuminated
Dec 12
Waning Crescent
Dec 13
New
Dec 19
First Quarter
Dec 28
Full
Jan 4
Last Quarter

Hourly Weather History & Observations

Time (CST) Temp. Windchill Dew Point Humidity Pressure Visibility Wind Dir Wind Speed Gust Speed Precip Events Conditions
12:14 AM -9.4 °F - -14.8 °F 77% 29.92 in 10.0 mi Calm Calm - N/A   Clear
12:34 AM -7.6 °F - -13.0 °F 77% 29.92 in 10.0 mi Calm Calm - N/A   Clear
12:54 AM -5.8 °F -18.4 °F -9.4 °F 84% 29.91 in 10.0 mi ESE 5.8 mph - N/A   Clear
1:14 AM -4.0 °F -17.8 °F -7.6 °F 85% 29.92 in 10.0 mi East 6.9 mph - N/A   Clear
1:34 AM -4.0 °F -17.8 °F -9.4 °F 78% 29.92 in 10.0 mi ESE 6.9 mph - N/A   Scattered Clouds
1:54 AM -4.0 °F -19.0 °F -9.4 °F 78% 29.92 in 10.0 mi ESE 8.1 mph - N/A   Scattered Clouds
2:14 AM -2.2 °F -18.0 °F -7.6 °F 78% 29.92 in 10.0 mi East 9.2 mph - N/A   Mostly Cloudy
2:34 AM -2.2 °F -18.9 °F -7.6 °F 78% 29.91 in 10.0 mi East 10.4 mph - N/A   Mostly Cloudy
2:54 AM -2.2 °F -18.9 °F -7.6 °F 78% 29.91 in 10.0 mi East 10.4 mph - N/A   Mostly Cloudy
3:14 AM -0.4 °F -17.6 °F -7.6 °F 72% 29.90 in 10.0 mi East 11.5 mph - N/A   Overcast
3:34 AM -0.4 °F -15.7 °F -7.6 °F 72% 29.90 in 10.0 mi ESE 9.2 mph - N/A   Overcast
3:54 AM -0.4 °F -14.7 °F -7.6 °F 72% 29.90 in 5.0 mi East 8.1 mph - N/A   Haze
4:14 AM -0.4 °F -13.4 °F -7.6 °F 72% 29.90 in 2.5 mi East 6.9 mph - N/A Snow Light Snow
4:34 AM -0.4 °F -15.7 °F -5.8 °F 78% 29.90 in 2.5 mi East 9.2 mph - N/A Snow Light Snow
4:54 AM -0.4 °F -17.6 °F -5.8 °F 78% 29.88 in 3.0 mi East 11.5 mph - N/A Snow Light Snow
5:14 AM -0.4 °F -19.9 °F -5.8 °F 78% 29.86 in 3.0 mi East 15.0 mph - N/A Snow Light Snow
5:34 AM -0.4 °F -19.2 °F -5.8 °F 78% 29.86 in 2.5 mi East 13.8 mph - N/A Snow Light Snow
5:54 AM 1.4 °F -18.8 °F -4.0 °F 78% 29.85 in 2.5 mi East 17.3 mph - N/A Snow Light Snow
6:14 AM 1.4 °F -17.6 °F -4.0 °F 78% 29.85 in 2.0 mi East 15.0 mph - N/A Snow Light Snow
6:34 AM 1.4 °F -18.2 °F -2.2 °F 85% 29.85 in 2.5 mi East 16.1 mph - N/A Snow Light Snow
6:54 AM 1.4 °F -19.4 °F -2.2 °F 85% 29.84 in 2.0 mi East 18.4 mph - N/A Snow Light Snow
7:14 AM 3.2 °F -16.5 °F -2.2 °F 78% 29.84 in 2.5 mi East 17.3 mph - N/A Snow Light Snow
7:34 AM 3.2 °F -15.9 °F -0.4 °F 85% 29.84 in 2.5 mi East 16.1 mph 20.7 mph N/A Snow Light Snow
7:54 AM 3.2 °F -15.9 °F -0.4 °F 85% 29.84 in 2.5 mi East 16.1 mph - N/A Snow Light Snow
8:14 AM 5.0 °F -14.2 °F -0.4 °F 78% 29.82 in 2.0 mi East 17.3 mph - N/A Snow Light Snow
8:34 AM 5.0 °F -14.7 °F -0.4 °F 78% 29.81 in 1.2 mi East 18.4 mph - N/A Snow Light Snow
8:54 AM 6.8 °F -11.3 °F 1.4 °F 79% 29.80 in 2.0 mi East 16.1 mph 23.0 mph N/A Snow Light Snow
9:14 AM 6.8 °F -10.7 °F 1.4 °F 79% 29.80 in 1.8 mi East 15.0 mph - N/A Snow Light Snow
9:34 AM 6.8 °F -10.7 °F 1.4 °F 79% 29.80 in 1.2 mi East 15.0 mph - N/A Snow Light Snow
9:54 AM 6.8 °F -9.3 °F 3.2 °F 85% 29.82 in 1.8 mi East 12.7 mph - N/A Snow Light Snow
10:14 AM 8.6 °F -7.0 °F 3.2 °F 79% 29.83 in 4.0 mi East 12.7 mph - N/A Snow Light Snow
10:34 AM 8.6 °F -6.3 °F 3.2 °F 79% 29.82 in 10.0 mi East 11.5 mph - N/A   Scattered Clouds
10:54 AM 8.6 °F -6.3 °F 3.2 °F 79% 29.82 in 10.0 mi East 11.5 mph - N/A   Scattered Clouds
11:14 AM 8.6 °F -5.5 °F 3.2 °F 79% 29.82 in 10.0 mi East 10.4 mph - N/A   Mostly Cloudy
11:34 AM 8.6 °F -5.5 °F 3.2 °F 79% 29.81 in 10.0 mi East 10.4 mph - N/A   Overcast
11:54 AM 10.4 °F -3.3 °F 5.0 °F 79% 29.80 in 10.0 mi East 10.4 mph - N/A   Overcast
12:14 PM 10.4 °F -4.1 °F 5.0 °F 79% 29.80 in 7.0 mi East 11.5 mph - N/A   Overcast
12:34 PM 10.4 °F -3.3 °F 5.0 °F 79% 29.80 in 10.0 mi East 10.4 mph - N/A   Overcast
12:54 PM 10.4 °F -2.4 °F 6.8 °F 85% 29.80 in 10.0 mi East 9.2 mph - N/A   Overcast
1:14 PM 12.2 °F 0.7 °F 6.8 °F 79% 29.79 in 7.0 mi East 8.1 mph - N/A Snow Light Snow
1:34 PM 12.2 °F 0.7 °F 6.8 °F 79% 29.80 in 10.0 mi East 8.1 mph - N/A Snow Light Snow
1:54 PM 12.2 °F 0.7 °F 6.8 °F 79% 29.79 in 10.0 mi East 8.1 mph - N/A   Overcast
2:14 PM 12.2 °F 2.9 °F 6.8 °F 79% 29.79 in 10.0 mi ENE 5.8 mph - N/A   Overcast
2:34 PM 12.2 °F 1.7 °F 8.6 °F 85% 29.79 in 10.0 mi ENE 6.9 mph - N/A   Overcast
2:54 PM 12.2 °F 1.7 °F 8.6 °F 85% 29.80 in 10.0 mi East 6.9 mph - N/A   Overcast
3:14 PM 14.0 °F 3.9 °F 8.6 °F 79% 29.81 in 10.0 mi ENE 6.9 mph - N/A   Overcast
3:34 PM 14.0 °F 6.5 °F 8.6 °F 79% 29.81 in 10.0 mi ENE 4.6 mph - N/A   Overcast
3:54 PM 14.0 °F 5.1 °F 8.6 °F 79% 29.82 in 10.0 mi NE 5.8 mph - N/A   Overcast
4:14 PM 14.0 °F 8.2 °F 8.6 °F 79% 29.83 in 10.0 mi NNE 3.5 mph - N/A   Overcast
4:34 PM 14.0 °F 8.2 °F 8.6 °F 79% 29.84 in 10.0 mi NNE 3.5 mph - N/A   Overcast
4:54 PM 14.0 °F 6.5 °F 8.6 °F 79% 29.85 in 10.0 mi NNE 4.6 mph - N/A   Overcast
5:14 PM 14.0 °F 8.2 °F 8.6 °F 79% 29.85 in 10.0 mi NNE 3.5 mph - N/A   Overcast
5:34 PM 14.0 °F 8.2 °F 8.6 °F 79% 29.86 in 10.0 mi North 3.5 mph - N/A   Overcast
5:54 PM 15.8 °F 7.2 °F 8.6 °F 73% 29.87 in 10.0 mi North 5.8 mph - N/A   Overcast
6:14 PM 12.2 °F 0.7 °F 8.6 °F 85% 29.87 in 10.0 mi North 8.1 mph - N/A   Overcast
6:34 PM 12.2 °F 6.1 °F 8.6 °F 85% 29.89 in 10.0 mi North 3.5 mph - N/A   Overcast
6:54 PM 12.2 °F 4.3 °F 8.6 °F 85% 29.89 in 10.0 mi NNE 4.6 mph - N/A   Overcast
7:14 PM 12.2 °F 4.3 °F 8.6 °F 85% 29.89 in 10.0 mi North 4.6 mph - N/A   Overcast
7:34 PM 12.2 °F 2.9 °F 8.6 °F 85% 29.90 in 7.0 mi North 5.8 mph - N/A   Overcast
7:54 PM 12.2 °F 4.3 °F 8.6 °F 85% 29.90 in 5.0 mi NNW 4.6 mph - N/A   Overcast
8:14 PM 12.2 °F 6.1 °F 8.6 °F 85% 29.91 in 5.0 mi North 3.5 mph - N/A   Overcast
8:34 PM 12.2 °F 6.1 °F 8.6 °F 85% 29.92 in 4.0 mi NNW 3.5 mph - N/A Snow Light Snow
8:54 PM 12.2 °F 2.9 °F 8.6 °F 85% 29.92 in 5.0 mi NW 5.8 mph - N/A Snow Light Snow
9:14 PM 12.2 °F 2.9 °F 8.6 °F 85% 29.92 in 7.0 mi NNW 5.8 mph - N/A   Overcast
9:34 PM 12.2 °F 4.3 °F 8.6 °F 85% 29.92 in 7.0 mi NW 4.6 mph - N/A   Overcast
9:54 PM 10.4 °F 4.0 °F 8.6 °F 92% 29.93 in 7.0 mi NW 3.5 mph - N/A Snow Light Snow
10:14 PM 10.4 °F 4.0 °F 8.6 °F 92% 29.93 in 10.0 mi NNW 3.5 mph - N/A   Overcast
10:34 PM 10.4 °F - 6.8 °F 85% 29.94 in 10.0 mi Calm Calm - N/A   Overcast
10:54 PM 10.4 °F - 6.8 °F 85% 29.95 in 10.0 mi Calm Calm - N/A   Overcast
11:14 PM 10.4 °F 4.0 °F 6.8 °F 85% 29.95 in 10.0 mi NW 3.5 mph - N/A Snow Light Snow
11:34 PM 10.4 °F 4.0 °F 6.8 °F 85% 29.96 in 10.0 mi NW 3.5 mph - N/A   Overcast
11:54 PM 10.4 °F - 6.8 °F 85% 29.96 in 10.0 mi Calm Calm - N/A   Overcast